Time,TemperatureF,DewpointF,PressureIn,WindDirection,WindDirectionDegrees,WindSpeedMPH,WindSpeedGustMPH,Humidity,HourlyPrecipIn,Conditions,Clouds,dailyrainin,SoftwareType,DateUTC
2013-02-01 00:01:00,43.0,43.0,30.33,North,-999,0.0,0.0,100,0.00,,,0.28,,2013-02-01 08:01:00,
2013-02-01 00:11:00,43.0,43.0,30.33,North,-999,0.0,0.0,100,0.00,,,0.28,,2013-02-01 08:11:00,
2013-02-01 00:21:00,43.0,43.0,30.33,North,-999,0.0,0.0,100,0.00,,,0.27,,2013-02-01 08:21:00,
2013-02-01 00:31:00,42.0,42.0,30.33,North,-999,0.0,0.0,100,0.00,,,0.26,,2013-02-01 08:31:00,
2013-02-01 00:41:00,42.0,42.0,30.33,North,-999,0.0,0.0,100,0.00,,,0.26,,2013-02-01 08:41:00,
2013-02-01 00:52:00,42.0,42.0,30.34,North,-999,0.0,0.0,100,0.00,,,0.25,,2013-02-01 08:52:00,
2013-02-01 01:01:00,42.0,42.0,30.34,North,-999,0.0,0.0,100,0.00,,,0.24,,2013-02-01 09:01:00,
2013-02-01 01:11:00,42.0,42.0,30.34,North,-999,0.0,0.0,100,0.00,,,0.24,,2013-02-01 09:11:00,
2013-02-01 01:21:00,42.0,42.0,30.34,North,-999,0.0,0.0,100,0.00,,,0.24,,2013-02-01 09:21:00,
2013-02-01 01:31:00,42.0,42.0,30.35,North,-999,0.0,0.0,100,0.00,,,0.23,,2013-02-01 09:31:00,
2013-02-01 01:41:00,42.0,42.0,30.35,North,-999,0.0,0.0,100,0.00,,,0.23,,2013-02-01 09:41:00,
2013-02-01 01:51:00,42.0,42.0,30.35,North,-999,0.0,0.0,100,0.01,,,0.24,,2013-02-01 09:51:00,
2013-02-01 02:01:00,42.0,42.0,30.35,North,-999,0.0,0.0,100,0.01,,,0.24,,2013-02-01 10:01:00,
2013-02-01 02:11:00,42.0,42.0,30.35,North,-999,0.0,0.0,100,0.01,,,0.24,,2013-02-01 10:11:00,
2013-02-01 02:21:00,42.0,42.0,30.35,North,-999,0.0,0.0,100,0.01,,,0.21,,2013-02-01 10:21:00,
2013-02-01 02:32:00,42.0,42.0,30.36,North,-999,0.0,0.0,100,0.03,,,0.22,,2013-02-01 10:32:00,
2013-02-01 02:43:00,42.0,42.0,30.36,North,-999,0.0,0.0,100,0.03,,,0.22,,2013-02-01 10:43:00,
2013-02-01 02:53:00,42.0,42.0,30.36,North,-999,0.0,0.0,100,0.06,,,0.25,,2013-02-01 10:53:00,
2013-02-01 03:01:00,42.0,42.0,30.36,North,-999,0.0,0.0,100,0.06,,,0.24,,2013-02-01 11:01:00,
2013-02-01 03:11:00,42.0,42.0,30.36,North,-999,0.0,0.0,100,0.06,,,0.24,,2013-02-01 11:11:00,
2013-02-01 03:21:00,42.0,42.0,30.37,North,-999,0.0,0.0,100,0.06,,,0.24,,2013-02-01 11:21:00,
2013-02-01 03:31:00,42.0,42.0,30.37,North,-999,0.0,0.0,100,0.04,,,0.24,,2013-02-01 11:31:00,
2013-02-01 03:40:00,42.0,42.0,30.37,North,-999,0.0,0.0,100,0.01,,,0.24,,2013-02-01 11:40:00,
2013-02-01 03:41:00,42.0,42.0,30.37,North,-999,0.0,0.0,100,0.04,,,0.24,,2013-02-01 11:41:00,
2013-02-01 03:53:00,42.0,42.0,30.37,North,-999,0.0,0.0,100,0.01,,,0.25,,2013-02-01 11:53:00,
2013-02-01 04:01:00,42.0,42.0,30.37,North,-999,0.0,0.0,100,0.01,,,0.24,,2013-02-01 12:01:00,
2013-02-01 04:12:00,42.0,42.0,30.37,North,-999,0.0,0.0,100,0.01,,,0.24,,2013-02-01 12:12:00,
2013-02-01 04:22:00,42.0,42.0,30.37,North,-999,0.0,0.0,100,0.01,,,0.24,,2013-02-01 12:22:00,
2013-02-01 04:31:00,42.0,42.0,30.37,North,-999,0.0,0.0,100,0.01,,,0.24,,2013-02-01 12:31:00,
2013-02-01 04:52:00,41.0,41.0,30.38,North,-999,0.0,0.0,100,0.00,,,0.23,,2013-02-01 12:52:00,
2013-02-01 05:02:00,41.0,41.0,30.38,North,-999,0.0,0.0,100,0.00,,,0.23,,2013-02-01 13:02:00,
2013-02-01 05:11:00,41.0,41.0,30.38,North,-999,0.0,0.0,100,0.00,,,0.23,,2013-02-01 13:11:00,
2013-02-01 05:21:00,41.0,41.0,30.38,North,-999,0.0,0.0,100,0.00,,,0.23,,2013-02-01 13:21:00,
2013-02-01 05:32:00,41.0,41.0,30.38,North,-999,0.0,0.0,100,0.00,,,0.23,,2013-02-01 13:32:00,
2013-02-01 05:41:00,41.0,41.0,30.38,North,-999,0.0,0.0,100,0.00,,,0.23,,2013-02-01 13:41:00,
2013-02-01 05:53:00,41.0,41.0,30.38,North,-999,0.0,0.0,100,0.00,,,0.23,,2013-02-01 13:53:00,
2013-02-01 06:02:00,41.0,41.0,30.38,North,-999,0.0,0.0,100,0.00,,,0.23,,2013-02-01 14:02:00,
2013-02-01 06:11:00,41.0,41.0,30.38,North,-999,0.0,0.0,100,0.00,,,0.22,,2013-02-01 14:11:00,
2013-02-01 06:21:00,41.0,41.0,30.38,North,-999,0.0,0.0,100,0.00,,,0.22,,2013-02-01 14:21:00,
2013-02-01 06:31:00,41.0,41.0,30.38,North,-999,0.0,0.0,100,0.00,,,0.22,,2013-02-01 14:31:00,
2013-02-01 06:42:00,41.0,41.0,30.38,North,-999,0.0,0.0,100,0.00,,,0.22,,2013-02-01 14:42:00,
2013-02-01 06:52:00,41.0,41.0,30.39,North,-999,0.0,0.0,100,0.02,,,0.23,,2013-02-01 14:52:00,
2013-02-01 07:01:00,41.0,41.0,30.39,North,-999,0.0,0.0,100,0.02,,,0.23,,2013-02-01 15:01:00,
2013-02-01 07:11:00,41.0,41.0,30.38,North,-999,0.0,0.0,100,0.02,,,0.23,,2013-02-01 15:11:00,
2013-02-01 07:21:00,41.0,41.0,30.38,North,-999,0.0,0.0,100,0.02,,,0.23,,2013-02-01 15:21:00,
2013-02-01 07:31:00,41.0,41.0,30.38,North,-999,0.0,0.0,100,0.02,,,0.23,,2013-02-01 15:31:00,
2013-02-01 07:41:00,41.0,41.0,30.38,North,-999,0.0,0.0,100,0.02,,,0.23,,2013-02-01 15:41:00,
2013-02-01 07:52:00,41.0,41.0,30.38,North,-999,0.0,0.0,100,0.00,,,0.23,,2013-02-01 15:52:00,
2013-02-01 08:01:00,41.0,41.0,30.38,North,-999,0.0,0.0,100,0.00,,,0.23,,2013-02-01 16:01:00,
2013-02-01 08:11:00,41.0,41.0,30.38,North,-999,0.0,0.0,100,0.00,,,0.23,,2013-02-01 16:11:00,
2013-02-01 08:21:00,41.0,41.0,30.38,North,-999,0.0,0.0,100,0.00,,,0.23,,2013-02-01 16:21:00,
2013-02-01 08:32:00,41.0,41.0,30.38,North,-999,0.0,0.0,100,0.00,,,0.23,,2013-02-01 16:32:00,
2013-02-01 08:42:00,41.0,41.0,30.38,North,-999,0.0,0.0,100,0.00,,,0.23,,2013-02-01 16:42:00,
2013-02-01 08:52:00,41.0,41.0,30.38,North,-999,0.0,0.0,100,0.00,,,0.23,,2013-02-01 16:52:00,
2013-02-01 09:01:00,40.0,40.0,30.39,North,-999,0.0,0.0,100,0.00,,,0.23,,2013-02-01 17:01:00,
2013-02-01 09:11:00,40.0,40.0,30.38,North,-999,0.0,0.0,100,0.00,,,0.23,,2013-02-01 17:11:00,
2013-02-01 09:21:00,40.0,40.0,30.38,North,-999,0.0,0.0,100,0.00,,,0.23,,2013-02-01 17:21:00,
2013-02-01 09:31:00,40.0,40.0,30.39,North,-999,0.0,0.0,100,0.00,,,0.23,,2013-02-01 17:31:00,
2013-02-01 09:41:00,40.0,40.0,30.39,North,-999,0.0,0.0,100,0.00,,,0.23,,2013-02-01 17:41:00,
2013-02-01 09:53:00,41.0,41.0,30.39,North,-999,0.0,0.0,100,0.00,,,0.23,,2013-02-01 17:53:00,
2013-02-01 10:02:00,41.0,41.0,30.39,North,-999,0.0,0.0,100,0.00,,,0.23,,2013-02-01 18:02:00,
2013-02-01 10:11:00,41.0,41.0,30.39,North,-999,0.0,0.0,100,0.00,,,0.23,,2013-02-01 18:11:00,
2013-02-01 10:21:00,42.0,42.0,30.39,North,-999,0.0,0.0,100,0.00,,,0.22,,2013-02-01 18:21:00,
2013-02-01 10:31:00,42.0,42.0,30.39,North,-999,0.0,0.0,100,0.00,,,0.22,,2013-02-01 18:31:00,
2013-02-01 10:41:00,42.0,42.0,30.39,North,-999,0.0,0.0,100,0.00,,,0.22,,2013-02-01 18:41:00,
2013-02-01 10:53:00,43.0,43.0,30.40,North,-999,0.0,0.0,100,0.00,,,0.22,,2013-02-01 18:53:00,
2013-02-01 11:01:00,44.0,44.0,30.40,North,-999,0.0,0.0,100,0.00,,,0.21,,2013-02-01 19:01:00,
2013-02-01 11:11:00,44.0,44.0,30.40,North,-999,0.0,0.0,100,0.00,,,0.21,,2013-02-01 19:11:00,
2013-02-01 11:21:00,44.0,44.0,30.41,ENE,67,0.0,1.0,100,0.00,,,0.20,,2013-02-01 19:21:00,
2013-02-01 11:31:00,44.0,44.0,30.41,NE,45,0.0,1.0,100,0.00,,,0.20,,2013-02-01 19:31:00,
2013-02-01 11:41:00,44.0,44.0,30.41,NE,45,0.0,1.0,100,0.00,,,0.20,,2013-02-01 19:41:00,
2013-02-01 11:52:00,45.0,45.0,30.41,NE,45,0.0,1.0,99,0.00,,,0.18,,2013-02-01 19:52:00,
2013-02-01 12:01:00,45.0,45.0,30.41,West,270,0.0,1.0,99,0.00,,,0.17,,2013-02-01 20:01:00,
2013-02-01 12:11:00,46.0,45.0,30.40,ENE,67,0.0,1.0,98,0.00,,,0.16,,2013-02-01 20:11:00,
2013-02-01 12:21:00,46.0,45.0,30.40,ENE,67,0.0,1.0,98,0.00,,,0.16,,2013-02-01 20:21:00,
2013-02-01 12:31:00,47.0,46.0,30.40,West,270,0.0,2.0,95,0.00,,,0.15,,2013-02-01 20:31:00,
2013-02-01 12:41:00,47.0,46.0,30.40,North,-999,0.0,0.0,97,0.00,,,0.15,,2013-02-01 20:41:00,
2013-02-01 12:52:00,47.0,46.0,30.40,North,-999,0.0,0.0,97,0.00,,,0.15,,2013-02-01 20:52:00,
2013-02-01 13:01:00,47.0,46.0,30.40,North,-999,0.0,0.0,96,0.00,,,0.15,,2013-02-01 21:01:00,
2013-02-01 13:11:00,47.0,46.0,30.40,North,-999,0.0,0.0,96,0.00,,,0.15,,2013-02-01 21:11:00,
2013-02-01 13:21:00,47.0,46.0,30.40,North,-999,0.0,0.0,95,0.00,,,0.15,,2013-02-01 21:21:00,
2013-02-01 13:31:00,47.0,45.0,30.40,North,-999,0.0,0.0,94,0.00,,,0.15,,2013-02-01 21:31:00,
2013-02-01 13:41:00,47.0,45.0,30.40,North,-999,0.0,0.0,94,0.00,,,0.15,,2013-02-01 21:41:00,
2013-02-01 13:52:00,48.0,46.0,30.39,NE,45,0.0,1.0,94,0.00,,,0.15,,2013-02-01 21:52:00,
2013-02-01 14:01:00,48.0,47.0,30.39,North,-999,0.0,0.0,95,0.00,,,0.15,,2013-02-01 22:01:00,
2013-02-01 14:11:00,48.0,47.0,30.39,North,-999,0.0,0.0,95,0.00,,,0.15,,2013-02-01 22:11:00,
2013-02-01 14:21:00,48.0,47.0,30.38,North,-999,0.0,0.0,95,0.00,,,0.15,,2013-02-01 22:21:00,
2013-02-01 14:32:00,48.0,46.0,30.38,North,-999,0.0,0.0,94,0.00,,,0.15,,2013-02-01 22:32:00,
2013-02-01 14:41:00,48.0,46.0,30.38,North,-999,0.0,0.0,94,0.00,,,0.15,,2013-02-01 22:41:00,
2013-02-01 14:52:00,48.0,46.0,30.38,North,-999,0.0,0.0,94,0.00,,,0.15,,2013-02-01 22:52:00,
2013-02-01 15:01:00,48.0,46.0,30.38,North,-999,0.0,0.0,94,0.00,,,0.15,,2013-02-01 23:01:00,
2013-02-01 15:11:00,48.0,46.0,30.38,North,-999,0.0,0.0,94,0.00,,,0.15,,2013-02-01 23:11:00,
2013-02-01 15:21:00,47.0,46.0,30.38,ENE,67,0.0,1.0,95,0.00,,,0.15,,2013-02-01 23:21:00,
2013-02-01 15:31:00,47.0,46.0,30.38,North,-999,0.0,0.0,96,0.00,,,0.15,,2013-02-01 23:31:00,
2013-02-01 15:42:00,47.0,46.0,30.38,North,-999,0.0,0.0,96,0.00,,,0.15,,2013-02-01 23:42:00,
2013-02-01 15:52:00,47.0,45.0,30.38,North,-999,0.0,0.0,94,0.00,,,0.15,,2013-02-01 23:52:00,
2013-02-01 16:01:00,47.0,46.0,30.38,North,-999,0.0,0.0,95,0.00,,,0.15,,2013-02-02 00:01:00,
2013-02-01 16:11:00,47.0,46.0,30.38,North,-999,0.0,0.0,95,0.00,,,0.15,,2013-02-02 00:11:00,
2013-02-01 16:21:00,46.0,45.0,30.38,North,-999,0.0,0.0,97,0.00,,,0.14,,2013-02-02 00:21:00,
2013-02-01 16:31:00,45.0,44.0,30.38,North,-999,0.0,0.0,98,0.00,,,0.14,,2013-02-02 00:31:00,
2013-02-01 16:41:00,45.0,44.0,30.38,North,-999,0.0,0.0,98,0.00,,,0.14,,2013-02-02 00:41:00,
2013-02-01 16:52:00,45.0,45.0,30.38,North,-999,0.0,0.0,99,0.00,,,0.12,,2013-02-02 00:52:00,
2013-02-01 17:01:00,44.0,44.0,30.38,North,-999,0.0,0.0,99,0.00,,,0.11,,2013-02-02 01:01:00,
2013-02-01 17:11:00,44.0,44.0,30.38,North,-999,0.0,0.0,99,0.00,,,0.11,,2013-02-02 01:11:00,
2013-02-01 17:21:00,44.0,44.0,30.38,North,-999,0.0,0.0,99,0.00,,,0.10,,2013-02-02 01:21:00,
2013-02-01 17:31:00,43.0,43.0,30.38,North,-999,0.0,0.0,99,0.00,,,0.10,,2013-02-02 01:31:00,
2013-02-01 17:41:00,43.0,43.0,30.38,North,-999,0.0,0.0,99,0.00,,,0.10,,2013-02-02 01:41:00,
2013-02-01 17:52:00,43.0,43.0,30.38,North,-999,0.0,0.0,100,0.00,,,0.10,,2013-02-02 01:52:00,
2013-02-01 18:01:00,43.0,43.0,30.38,SSW,202,0.0,1.0,100,0.00,,,0.10,,2013-02-02 02:01:00,
2013-02-01 18:11:00,43.0,43.0,30.38,SSW,202,0.0,1.0,100,0.00,,,0.10,,2013-02-02 02:11:00,
2013-02-01 18:21:00,42.0,42.0,30.38,North,-999,0.0,0.0,100,0.00,,,0.10,,2013-02-02 02:21:00,
2013-02-01 18:31:00,42.0,42.0,30.38,North,-999,0.0,0.0,100,0.00,,,0.10,,2013-02-02 02:31:00,
2013-02-01 18:41:00,42.0,42.0,30.38,North,-999,0.0,0.0,100,0.00,,,0.10,,2013-02-02 02:41:00,
2013-02-01 18:52:00,42.0,42.0,30.38,North,-999,0.0,0.0,100,0.00,,,0.10,,2013-02-02 02:52:00,
2013-02-01 19:01:00,41.0,41.0,30.38,North,-999,0.0,0.0,100,0.00,,,0.10,,2013-02-02 03:01:00,
2013-02-01 19:11:00,41.0,41.0,30.38,North,-999,0.0,0.0,100,0.00,,,0.10,,2013-02-02 03:11:00,
2013-02-01 19:21:00,41.0,41.0,30.38,North,-999,0.0,0.0,100,0.00,,,0.10,,2013-02-02 03:21:00,
2013-02-01 19:31:00,40.0,40.0,30.38,North,-999,0.0,0.0,100,0.00,,,0.10,,2013-02-02 03:31:00,
2013-02-01 19:42:00,39.0,39.0,30.38,North,-999,0.0,0.0,100,0.00,,,0.10,,2013-02-02 03:42:00,
2013-02-01 19:51:00,39.0,39.0,30.38,North,-999,0.0,0.0,100,0.00,,,0.10,,2013-02-02 03:51:00,
2013-02-01 20:01:00,39.0,39.0,30.39,North,-999,0.0,0.0,100,0.00,,,0.10,,2013-02-02 04:01:00,
2013-02-01 20:11:00,39.0,39.0,30.39,North,-999,0.0,0.0,100,0.00,,,0.10,,2013-02-02 04:11:00,
2013-02-01 20:21:00,39.0,39.0,30.39,North,-999,0.0,0.0,100,0.00,,,0.10,,2013-02-02 04:21:00,
2013-02-01 20:32:00,39.0,39.0,30.39,North,-999,0.0,0.0,100,0.00,,,0.10,,2013-02-02 04:32:00,
2013-02-01 20:41:00,39.0,39.0,30.39,North,-999,0.0,0.0,100,0.00,,,0.10,,2013-02-02 04:41:00,
2013-02-01 20:51:00,39.0,39.0,30.39,North,-999,0.0,0.0,100,0.00,,,0.10,,2013-02-02 04:51:00,
2013-02-01 21:02:00,39.0,39.0,30.39,North,-999,0.0,0.0,100,0.00,,,0.10,,2013-02-02 05:02:00,
2013-02-01 21:11:00,39.0,39.0,30.39,North,-999,0.0,0.0,100,0.00,,,0.10,,2013-02-02 05:11:00,
2013-02-01 21:22:00,38.0,38.0,30.39,North,-999,0.0,0.0,100,0.00,,,0.10,,2013-02-02 05:22:00,
2013-02-01 21:33:00,38.0,38.0,30.39,North,-999,0.0,0.0,100,0.00,,,0.10,,2013-02-02 05:33:00,
2013-02-01 21:42:00,38.0,38.0,30.39,North,-999,0.0,0.0,100,0.00,,,0.10,,2013-02-02 05:42:00,
2013-02-01 21:52:00,37.0,37.0,30.40,North,-999,0.0,0.0,100,0.00,,,0.10,,2013-02-02 05:52:00,
2013-02-01 22:01:00,37.0,37.0,30.40,North,-999,0.0,0.0,100,0.00,,,0.10,,2013-02-02 06:01:00,
2013-02-01 22:11:00,37.0,37.0,30.40,North,-999,0.0,0.0,100,0.00,,,0.10,,2013-02-02 06:11:00,
2013-02-01 22:21:00,36.0,36.0,30.40,North,-999,0.0,0.0,100,0.00,,,0.10,,2013-02-02 06:21:00,
2013-02-01 22:31:00,37.0,37.0,30.39,North,-999,0.0,0.0,100,0.00,,,0.10,,2013-02-02 06:31:00,
2013-02-01 22:42:00,37.0,37.0,30.39,North,-999,0.0,0.0,100,0.00,,,0.10,,2013-02-02 06:42:00,
2013-02-01 22:52:00,37.0,37.0,30.39,North,-999,0.0,0.0,100,0.00,,,0.10,,2013-02-02 06:52:00,
2013-02-01 23:01:00,35.0,35.0,30.40,North,-999,0.0,0.0,100,0.00,,,0.09,,2013-02-02 07:01:00,
2013-02-01 23:11:00,35.0,35.0,30.39,North,-999,0.0,0.0,100,0.00,,,0.09,,2013-02-02 07:11:00,
2013-02-01 23:21:00,35.0,35.0,30.39,North,-999,0.0,0.0,100,0.00,,,0.09,,2013-02-02 07:21:00,
2013-02-01 23:31:00,36.0,36.0,30.39,North,-999,0.0,0.0,100,0.00,,,0.09,,2013-02-02 07:31:00,
2013-02-01 23:41:00,36.0,36.0,30.39,North,-999,0.0,0.0,100,0.00,,,0.09,,2013-02-02 07:41:00,
2013-02-01 23:51:00,35.0,35.0,30.39,North,-999,0.0,0.0,100,0.00,,,0.09,,2013-02-02 07:51:00,